Torna al catalogo

STARLINK-2105

AttivoComunicazioniVLEO
NORAD 47385·PAYLOAD·🇺🇸 United States

Lanciato Jan 20, 2021 da Cape Canaveral Space Force Station

Loading…

Prossimi Passaggi (prossime 24 ore)

TLE

AggiornatoSource: CelesTrak SupGP

Epoca: Sep 14, 2026, 13:36 UTC

1 47385C 21005AN  26257.56715278 -.00028067  00000+0 -90297-3 0  2579
2 47385  53.1585 238.0984 0001502  88.8850 103.2360 15.31701519    14

Traccia STARLINK-2105 in tempo reale con AllMySat

Download on the App Store